Weather in Matveyshchevo

Russia / Vladimir Oblast     56°39′35″N   39°28′42″E
temp.,
°C
wind,
m/s
gust,
m/s
humid.,
%
clouds,
%
prec.,
mm/h
press.,
hPa
HPBL,
m
21 january, fri
fri2100:00−6s61390100 0.1 1002591
03:00−7s61392100 0.1 1002516
06:00−7s51291100 0.3 1002440
09:00−8sse51193100 0.4 1002417
12:00−7sse51194100 0.6 1002494
15:00−7se51194100 1.4 1001632
18:00−7se51194100 0.8 1000725
21:00−8se51194100 1.3 1001562
22 january, sat
sat2200:00−7se41095100 0.4 1002462
03:00−7se499498 1.1 1003358
06:00−9ese4997100 0.1 1004237
09:00−9ese4109698 0.1 1007346
12:00−7ese4993100 0.1 1009424
15:00−6ese4894100 0.4 1010481
18:00−7ese4895100 0.2 1013347
21:00−9ese269780 0.4 1015138
23 january, sun
sun2300:00−14ese1110088 0.1 101812
03:00−15se1110086 0.1 10209
06:00−18se00100100 0.0 10229
09:00−18s1110093 0.1 10259
12:00−10ssw129475 0.0 1027108
15:00−9ne00965 0.1 102912
18:00−16wsw009967 0.0 10329
21:00−18wnw1110082 0.0 10349
24 january, mon
mon2400:00−19ssw0010086 0.0 10369
03:00−20sw1110094 0.0 10379
06:00−21nnw01100100 0.0 10389
09:00−21sse11100100 0.0 10399
12:00−11se129474 0.0 1038101
15:00−10se11967 0.0 103720
18:00−18se1110066 0.0 10379
21:00−18sse1110072 0.0 10369
25 january, tue
tue2500:00−17s11100100 0.0 103431
03:00−17s24100100 0.1 103246
06:00−16s259965 0.0 102967
09:00−15ssw39966 0.0 1028146
12:00−11ssw499212 0.0 1025219
15:00−10s412928 0.0 1023335
18:00−11s4139348 0.0 1021308
21:00−12s4139464 0.0 1020296